| time (UTC) | temp F | wind direction | speed MPH | gust MPH | rain 1hr in | rain 24hr in | rain mn in | humidity % | barometer mb |
| 20260510211504 | 89 | 258 | 4.0 | 7.0 | 0.00 | 0.00 | 0.00 | 53 | 998.4 |
| 20260510211004 | 89 | 198 | 4.0 | 7.0 | 0.00 | 0.00 | 0.00 | 53 | 998.4 |
| 20260510210504 | 89 | 182 | 5.0 | 7.0 | 0.00 | 0.00 | 0.00 | 52 | 998.7 |
| 20260510210005 | 88 | 179 | 4.0 | 9.0 | 0.00 | 0.00 | 0.00 | 53 | 998.7 |
| 20260510205504 | 89 | 231 | 4.0 | 9.0 | 0.00 | 0.00 | 0.00 | 53 | 998.7 |
| 20260510205004 | 88 | 228 | 5.0 | 6.0 | 0.00 | 0.00 | 0.00 | 55 | 998.6 |
| 20260510204504 | 89 | 223 | 2.0 | 8.0 | 0.00 | 0.00 | 0.00 | 54 | 998.8 |
| 20260510204004 | 87 | 245 | 3.0 | 8.0 | 0.00 | 0.00 | 0.00 | 56 | 998.8 |
| 20260510202504 | 88 | 235 | 2.0 | 6.0 | 0.00 | 0.00 | 0.00 | 56 | 998.9 |
| 20260510202004 | 89 | 199 | 3.0 | 6.0 | 0.00 | 0.00 | 0.00 | 53 | 998.9 |
| 20260510201504 | 89 | 174 | 3.0 | 7.0 | 0.00 | 0.00 | 0.00 | 54 | 998.9 |
| 20260510200004 | 89 | 264 | 5.0 | 10.0 | 0.00 | 0.00 | 0.00 | 54 | 998.9 |
| 20260510195504 | 88 | 275 | 3.0 | 6.0 | 0.00 | 0.00 | 0.00 | 55 | 998.9 |
| 20260510195004 | 88 | 269 | 5.0 | 7.0 | 0.00 | 0.00 | 0.00 | 55 | 998.9 |
| 20260510194504 | 87 | 273 | 2.0 | 5.0 | 0.00 | 0.00 | 0.00 | 56 | 998.8 |
| 20260510194004 | 87 | 237 | 2.0 | 8.0 | 0.00 | 0.00 | 0.00 | 56 | 998.8 |
| 20260510193504 | 88 | 236 | 4.0 | 9.0 | 0.00 | 0.00 | 0.00 | 54 | 998.9 |
| 20260510193004 | 88 | 222 | 2.0 | 6.0 | 0.00 | 0.00 | 0.00 | 56 | 999.0 |
| 20260510192504 | 87 | 259 | 2.0 | 6.0 | 0.00 | 0.00 | 0.00 | 55 | 999.0 |
| 20260510192004 | 87 | 278 | 3.0 | 7.0 | 0.00 | 0.00 | 0.00 | 57 | 999.0 |
| 20260510191505 | 87 | 291 | 2.0 | 8.0 | 0.00 | 0.00 | 0.00 | 56 | 998.9 |
| 20260510190005 | 86 | 249 | 5.0 | 9.0 | 0.00 | 0.00 | 0.00 | 58 | 999.0 |
| 20260510185504 | 85 | 256 | 6.0 | 10.0 | 0.00 | 0.00 | 0.00 | 58 | 999.1 |
| 20260510185004 | 85 | 244 | 5.0 | 8.0 | 0.00 | 0.00 | 0.00 | 58 | 999.1 |
| 20260510184504 | 86 | 261 | 5.0 | 9.0 | 0.00 | 0.00 | 0.00 | 57 | 999.1 |
| 20260510184004 | 86 | 237 | 3.0 | 9.0 | 0.00 | 0.00 | 0.00 | 58 | 999.1 |
| 20260510183504 | 86 | 243 | 3.0 | 6.0 | 0.00 | 0.00 | 0.00 | 59 | 999.3 |
| 20260510183004 | 85 | 346 | 3.0 | 6.0 | 0.00 | 0.00 | 0.00 | 59 | 999.2 |
| 20260510182004 | 85 | 342 | 4.0 | 9.0 | 0.00 | 0.00 | 0.00 | 62 | 999.2 |
| 20260510181504 | 86 | 264 | 5.0 | 9.0 | 0.00 | 0.00 | 0.00 | 60 | 999.2 |
| 20260510181004 | 84 | 260 | 3.0 | 8.0 | 0.00 | 0.00 | 0.00 | 63 | 999.3 |
| 20260510180504 | 85 | 248 | 3.0 | 8.0 | 0.00 | 0.00 | 0.00 | 62 | 999.4 |
| 20260510180004 | 85 | 265 | 3.0 | 8.0 | 0.00 | 0.00 | 0.00 | 62 | 999.4 |
| 20260510175004 | 84 | 285 | 3.0 | 10.0 | 0.00 | 0.00 | 0.00 | 65 | 999.5 |
| 20260510174504 | 83 | 276 | 5.0 | 10.0 | 0.00 | 0.00 | 0.00 | 65 | 999.6 |
| 20260510174004 | 84 | 244 | 6.0 | 8.0 | 0.00 | 0.00 | 0.00 | 62 | 999.5 |
| 20260510173005 | 84 | 270 | 5.0 | 9.0 | 0.00 | 0.00 | 0.00 | 65 | 999.6 |
| 20260510172504 | 84 | 260 | 5.0 | 8.0 | 0.00 | 0.00 | 0.00 | 65 | 999.7 |
| 20260510172004 | 83 | 304 | 5.0 | 8.0 | 0.00 | 0.01 | 0.00 | 69 | 999.7 |
| 20260510171504 | 84 | 261 | 5.0 | 12.0 | 0.00 | 0.01 | 0.00 | 68 | 999.9 |
| 20260510171004 | 84 | 235 | 5.0 | 10.0 | 0.00 | 0.02 | 0.00 | 68 | 999.9 |
| 20260510170504 | 83 | 270 | 5.0 | 10.0 | 0.00 | 0.02 | 0.00 | 68 | 999.9 |
| 20260510170004 | 83 | 230 | 7.0 | 10.0 | 0.00 | 0.02 | 0.00 | 68 | 1000.1 |
| 20260510165504 | 84 | 216 | 3.0 | 7.0 | 0.00 | 0.02 | 0.00 | 67 | 1000.1 |
| 20260510165004 | 83 | 196 | 2.0 | 9.0 | 0.00 | 0.02 | 0.00 | 68 | 1000.2 |
| 20260510164004 | 83 | 235 | 5.0 | 7.0 | 0.00 | 0.02 | 0.00 | 67 | 1000.3 |
| 20260510163504 | 83 | 245 | 4.0 | 8.0 | 0.00 | 0.02 | 0.00 | 68 | 1000.2 |
| 20260510162504 | 83 | 217 | 2.0 | 7.0 | 0.00 | 0.02 | 0.00 | 70 | 1000.2 |
| 20260510162004 | 83 | 267 | 2.0 | 7.0 | 0.00 | 0.02 | 0.00 | 69 | 1000.1 |
| 20260510161504 | 83 | 253 | 3.0 | 7.0 | 0.00 | 0.02 | 0.00 | 67 | 1000.2 |
| 20260510161004 | 83 | 266 | 3.0 | 6.0 | 0.00 | 0.02 | 0.00 | 67 | 1000.2 |
| 20260510160004 | 82 | 253 | 5.0 | 8.0 | 0.00 | 0.02 | 0.00 | 67 | 1000.1 |
| 20260510155504 | 82 | 241 | 2.0 | 6.0 | 0.00 | 0.02 | 0.00 | 69 | 1000.2 |
| 20260510155004 | 82 | 275 | 3.0 | 6.0 | 0.00 | 0.02 | 0.00 | 69 | 1000.2 |
| 20260510154504 | 81 | 221 | 2.0 | 7.0 | 0.00 | 0.02 | 0.00 | 70 | 1000.3 |
| 20260510153504 | 81 | 204 | 5.0 | 7.0 | 0.00 | 0.02 | 0.00 | 70 | 1000.1 |
| 20260510153004 | 81 | 266 | 2.0 | 6.0 | 0.00 | 0.02 | 0.00 | 71 | 1000.1 |
| 20260510152504 | 81 | 211 | 4.0 | 7.0 | 0.00 | 0.02 | 0.00 | 69 | 1000.0 |
| 20260510151504 | 80 | 268 | 3.0 | 6.0 | 0.00 | 0.02 | 0.00 | 72 | 1000.0 |
| 20260510151004 | 80 | 263 | 4.0 | 8.0 | 0.00 | 0.02 | 0.00 | 71 | 1000.1 |
| 20260510150504 | 80 | 201 | 3.0 | 6.0 | 0.00 | 0.02 | 0.00 | 71 | 1000.1 |
| 20260510145003 | 79 | 245 | 2.0 | 6.0 | 0.00 | 0.02 | 0.00 | 72 | 999.9 |
| 20260510144504 | 78 | 245 | 2.0 | 3.0 | 0.00 | 0.02 | 0.00 | 73 | 1000.0 |
| 20260510144004 | 78 | 288 | 2.0 | 6.0 | 0.00 | 0.02 | 0.00 | 74 | 999.9 |
| 20260510143504 | 78 | 243 | 2.0 | 5.0 | 0.00 | 0.02 | 0.00 | 74 | 1000.0 |
| 20260510143004 | 77 | 212 | 2.0 | 5.0 | 0.00 | 0.02 | 0.00 | 76 | 999.9 |
| 20260510142504 | 76 | 274 | 2.0 | 3.0 | 0.00 | 0.02 | 0.00 | 77 | 999.7 |
| 20260510142004 | 76 | 261 | 2.0 | 5.0 | 0.00 | 0.02 | 0.00 | 78 | 999.7 |
| 20260510141504 | 76 | 241 | 2.0 | 5.0 | 0.00 | 0.02 | 0.00 | 78 | 999.6 |
| 20260510141004 | 75 | 276 | 3.0 | 5.0 | 0.00 | 0.02 | 0.00 | 79 | 999.6 |
| 20260510140504 | 75 | 275 | 3.0 | 6.0 | 0.00 | 0.02 | 0.00 | 79 | 999.6 |
| 20260510140005 | 75 | 258 | 1.0 | 3.0 | 0.00 | 0.02 | 0.00 | 80 | 999.5 |
| 20260510135004 | 74 | 247 | 1.0 | 3.0 | 0.00 | 0.02 | 0.00 | 81 | 999.3 |
| 20260510134004 | 73 | 260 | 2.0 | 6.0 | 0.00 | 0.02 | 0.00 | 82 | 999.3 |
| 20260510133503 | 73 | 256 | 1.0 | 5.0 | 0.00 | 0.02 | 0.00 | 83 | 999.1 |
| 20260510133004 | 72 | 261 | 2.0 | 5.0 | 0.00 | 0.02 | 0.00 | 84 | 999.2 |
| 20260510132504 | 72 | 224 | 2.0 | 5.0 | 0.00 | 0.02 | 0.00 | 84 | 999.0 |
| 20260510132004 | 72 | 266 | 3.0 | 6.0 | 0.00 | 0.02 | 0.00 | 84 | 998.9 |
| 20260510131504 | 71 | 252 | 2.0 | 6.0 | 0.00 | 0.02 | 0.00 | 85 | 998.7 |
| 20260510131004 | 71 | 270 | 2.0 | 3.0 | 0.00 | 0.02 | 0.00 | 86 | 998.6 |
| 20260510130504 | 71 | 264 | 2.0 | 7.0 | 0.00 | 0.02 | 0.00 | 87 | 998.6 |
| 20260510125004 | 70 | 271 | 3.0 | 5.0 | 0.00 | 0.02 | 0.00 | 88 | 998.3 |
| 20260510124504 | 70 | 236 | 3.0 | 6.0 | 0.00 | 0.02 | 0.00 | 88 | 998.4 |
| 20260510124004 | 69 | 264 | 2.0 | 5.0 | 0.00 | 0.02 | 0.00 | 88 | 998.1 |
| 20260510123504 | 69 | 233 | 2.0 | 3.0 | 0.00 | 0.02 | 0.00 | 89 | 998.1 |
| 20260510123004 | 69 | 247 | 2.0 | 3.0 | 0.00 | 0.02 | 0.00 | 89 | 998.0 |
| 20260510122504 | 69 | 257 | 1.0 | 2.0 | 0.00 | 0.02 | 0.00 | 89 | 997.8 |
| 20260510122005 | 69 | 248 | 0.0 | 1.0 | 0.00 | 0.02 | 0.00 | 89 | 997.7 |
| 20260510121504 | 69 | 304 | 1.0 | 3.0 | 0.00 | 0.02 | 0.00 | 90 | 997.8 |
| 20260510121004 | 68 | 244 | 1.0 | 5.0 | 0.00 | 0.02 | 0.00 | 90 | 997.6 |
| 20260510120504 | 68 | 244 | 1.0 | 5.0 | 0.00 | 0.02 | 0.00 | 90 | 997.5 |
| 20260510120004 | 68 | 347 | 1.0 | 6.0 | 0.00 | 0.02 | 0.00 | 90 | 997.2 |
| 20260510115504 | 68 | 319 | 2.0 | 6.0 | 0.00 | 0.02 | 0.00 | 90 | 997.2 |
| 20260510115004 | 68 | 313 | 1.0 | 3.0 | 0.00 | 0.02 | 0.00 | 90 | 997.2 |
| 20260510114004 | 68 | 305 | 0.0 | 2.0 | 0.00 | 0.02 | 0.00 | 89 | 997.1 |
| 20260510113504 | 68 | 286 | 1.0 | 1.0 | 0.00 | 0.02 | 0.00 | 89 | 997.3 |
| 20260510113004 | 68 | 220 | 1.0 | 6.0 | 0.00 | 0.02 | 0.00 | 89 | 997.5 |
| 20260510112504 | 68 | 269 | 2.0 | 6.0 | 0.00 | 0.02 | 0.00 | 89 | 997.1 |
| 20260510111504 | 68 | 257 | 0.0 | 3.0 | 0.00 | 0.02 | 0.00 | 89 | 997.1 |
| 20260510111004 | 68 | 314 | 1.0 | 3.0 | 0.00 | 0.02 | 0.00 | 89 | 997.1 |
| 20260510110504 | 68 | 274 | 1.0 | 3.0 | 0.00 | 0.02 | 0.00 | 89 | 997.2 |
| 20260510110005 | 68 | 280 | 2.0 | 3.0 | 0.00 | 0.02 | 0.00 | 89 | 997.2 |
| 20260510105504 | 68 | 271 | 1.0 | 3.0 | 0.00 | 0.02 | 0.00 | 89 | 997.0 |
| 20260510105004 | 68 | 278 | 1.0 | 3.0 | 0.00 | 0.02 | 0.00 | 89 | 997.1 |
| 20260510104504 | 68 | 247 | 0.0 | 3.0 | 0.00 | 0.02 | 0.00 | 89 | 997.2 |
| 20260510104004 | 68 | 267 | 0.0 | 1.0 | 0.00 | 0.02 | 0.00 | 89 | 997.1 |
| 20260510103504 | 69 | 281 | 0.0 | 1.0 | 0.00 | 0.02 | 0.00 | 88 | 997.1 |
| 20260510103004 | 69 | 271 | 0.0 | 2.0 | 0.00 | 0.02 | 0.00 | 88 | 996.9 |
| 20260510102503 | 69 | 243 | 0.0 | 2.0 | 0.00 | 0.02 | 0.00 | 88 | 996.9 |
| 20260510102004 | 69 | 343 | 1.0 | 5.0 | 0.00 | 0.02 | 0.00 | 88 | 996.7 |
| 20260510101504 | 69 | 316 | 2.0 | 5.0 | 0.00 | 0.02 | 0.00 | 88 | 996.8 |
| 20260510101004 | 69 | 287 | 0.0 | 2.0 | 0.00 | 0.02 | 0.00 | 88 | 996.7 |
| 20260510100504 | 69 | 348 | 2.0 | 3.0 | 0.00 | 0.02 | 0.00 | 88 | 996.6 |
| 20260510095004 | 69 | 303 | 0.0 | 5.0 | 0.00 | 0.02 | 0.00 | 87 | 996.5 |
| 20260510094504 | 69 | 286 | 1.0 | 5.0 | 0.00 | 0.02 | 0.00 | 87 | 996.4 |
| 20260510094004 | 70 | 212 | 1.0 | 5.0 | 0.00 | 0.02 | 0.00 | 87 | 996.3 |
| 20260510093504 | 70 | 257 | 1.0 | 5.0 | 0.00 | 0.02 | 0.00 | 86 | 996.4 |
| 20260510093004 | 70 | 280 | 1.0 | 3.0 | 0.00 | 0.02 | 0.00 | 86 | 996.4 |
| 20260510092504 | 70 | 289 | 1.0 | 3.0 | 0.00 | 0.02 | 0.00 | 86 | 996.4 |
| 20260510091504 | 70 | 238 | 0.0 | 2.0 | 0.00 | 0.02 | 0.00 | 85 | 996.4 |
| 20260510091004 | 70 | 325 | 2.0 | 5.0 | 0.00 | 0.02 | 0.00 | 85 | 996.3 |
| 20260510090505 | 71 | 277 | 1.0 | 3.0 | 0.00 | 0.02 | 0.00 | 85 | 996.4 |
| 20260510090004 | 71 | 324 | 2.0 | 3.0 | 0.00 | 0.02 | 0.00 | 84 | 996.3 |
| 20260510085504 | 71 | 273 | 2.0 | 3.0 | 0.00 | 0.02 | 0.00 | 84 | 996.4 |
| 20260510084004 | 71 | 340 | 2.0 | 5.0 | 0.00 | 0.02 | 0.00 | 83 | 996.5 |
| 20260510083504 | 71 | 249 | 2.0 | 5.0 | 0.00 | 0.02 | 0.00 | 83 | 996.5 |
| 20260510083004 | 71 | 210 | 2.0 | 3.0 | 0.00 | 0.02 | 0.00 | 83 | 996.5 |
| 20260510082504 | 71 | 230 | 1.0 | 3.0 | 0.00 | 0.02 | 0.00 | 83 | 996.7 |
| 20260510082004 | 71 | 349 | 1.0 | 5.0 | 0.00 | 0.02 | 0.00 | 83 | 996.7 |
| 20260510081504 | 71 | 318 | 1.0 | 5.0 | 0.00 | 0.02 | 0.00 | 82 | 996.7 |
| 20260510081005 | 71 | 257 | 2.0 | 3.0 | 0.00 | 0.02 | 0.00 | 82 | 996.8 |
| 20260510080504 | 71 | 338 | 1.0 | 5.0 | 0.00 | 0.02 | 0.00 | 82 | 996.9 |
| 20260510080004 | 71 | 20 | 2.0 | 5.0 | 0.00 | 0.02 | 0.00 | 82 | 996.6 |
| 20260510075504 | 71 | 291 | 1.0 | 2.0 | 0.00 | 0.02 | 0.00 | 82 | 996.7 |
| 20260510075005 | 71 | 291 | 1.0 | 5.0 | 0.00 | 0.02 | 0.00 | 81 | 996.7 |
| 20260510074504 | 71 | 303 | 2.0 | 5.0 | 0.00 | 0.02 | 0.00 | 81 | 997.0 |
| 20260510074004 | 72 | 244 | 1.0 | 2.0 | 0.00 | 0.02 | 0.00 | 80 | 997.1 |
| 20260510073504 | 72 | 248 | 1.0 | 3.0 | 0.00 | 0.02 | 0.00 | 80 | 997.1 |
| 20260510072503 | 72 | 213 | 2.0 | 5.0 | 0.00 | 0.02 | 0.00 | 79 | 996.9 |
| 20260510072004 | 72 | 262 | 2.0 | 5.0 | 0.00 | 0.02 | 0.00 | 79 | 996.9 |
| 20260510071504 | 73 | 205 | 1.0 | 3.0 | 0.00 | 0.02 | 0.00 | 78 | 996.9 |
| 20260510071004 | 73 | 259 | 2.0 | 5.0 | 0.00 | 0.02 | 0.00 | 78 | 996.8 |
| 20260510070504 | 73 | 317 | 2.0 | 5.0 | 0.00 | 0.02 | 0.00 | 78 | 996.7 |
| 20260510070004 | 73 | 288 | 3.0 | 6.0 | 0.00 | 0.02 | 0.00 | 77 | 996.8 |
| 20260510065504 | 73 | 256 | 2.0 | 7.0 | 0.00 | 0.02 | 0.00 | 77 | 996.7 |
| 20260510065004 | 73 | 225 | 3.0 | 7.0 | 0.00 | 0.02 | 0.00 | 76 | 996.6 |
| 20260510064504 | 74 | 263 | 4.0 | 7.0 | 0.00 | 0.02 | 0.00 | 76 | 996.8 |
| 20260510064004 | 74 | 271 | 3.0 | 6.0 | 0.00 | 0.02 | 0.00 | 75 | 996.8 |
| 20260510063504 | 74 | 263 | 3.0 | 7.0 | 0.00 | 0.02 | 0.00 | 75 | 996.7 |
| 20260510063004 | 74 | 255 | 2.0 | 8.0 | 0.00 | 0.02 | 0.00 | 74 | 996.8 |
| 20260510062504 | 74 | 241 | 3.0 | 10.0 | 0.00 | 0.02 | 0.00 | 74 | 996.8 |
| 20260510062005 | 74 | 220 | 3.0 | 10.0 | 0.00 | 0.02 | 0.00 | 74 | 996.7 |
| 20260510061004 | 74 | 249 | 3.0 | 5.0 | 0.00 | 0.02 | 0.00 | 75 | 996.8 |
| 20260510060504 | 74 | 262 | 2.0 | 5.0 | 0.00 | 0.02 | 0.00 | 75 | 996.8 |
| 20260510060004 | 75 | 267 | 3.0 | 6.0 | 0.00 | 0.02 | 0.00 | 74 | 996.8 |
| 20260510055004 | 75 | 236 | 2.0 | 5.0 | 0.00 | 0.02 | 0.00 | 74 | 996.8 |
| 20260510054504 | 75 | 246 | 1.0 | 6.0 | 0.00 | 0.02 | 0.00 | 74 | 996.7 |
| 20260510054004 | 75 | 272 | 3.0 | 6.0 | 0.00 | 0.02 | 0.00 | 74 | 996.7 |
| 20260510053504 | 75 | 232 | 2.0 | 6.0 | 0.00 | 0.02 | 0.00 | 76 | 996.7 |
| 20260510053004 | 75 | 261 | 3.0 | 6.0 | 0.00 | 0.02 | 0.00 | 78 | 996.7 |
| 20260510052504 | 75 | 267 | 4.0 | 7.0 | 0.00 | 0.02 | 0.00 | 80 | 996.7 |
| 20260510052004 | 75 | 269 | 2.0 | 5.0 | 0.00 | 0.02 | 0.00 | 80 | 996.7 |
| 20260510051504 | 76 | 257 | 3.0 | 6.0 | 0.00 | 0.02 | 0.00 | 79 | 996.7 |
| 20260510051004 | 76 | 227 | 3.0 | 6.0 | 0.00 | 0.02 | 0.00 | 78 | 996.6 |
| 20260510045504 | 76 | 229 | 1.0 | 3.0 | 0.00 | 0.02 | 0.02 | 79 | 996.7 |
| 20260510045004 | 76 | 253 | 2.0 | 3.0 | 0.00 | 0.02 | 0.02 | 80 | 996.6 |
| 20260510044504 | 76 | 239 | 2.0 | 3.0 | 0.00 | 0.02 | 0.02 | 79 | 996.7 |
| 20260510044004 | 76 | 257 | 1.0 | 3.0 | 0.00 | 0.02 | 0.02 | 79 | 996.9 |
| 20260510043504 | 76 | 234 | 1.0 | 2.0 | 0.00 | 0.02 | 0.02 | 79 | 996.7 |
| 20260510043004 | 76 | 252 | 1.0 | 3.0 | 0.00 | 0.02 | 0.02 | 79 | 996.7 |
| 20260510042504 | 77 | 227 | 2.0 | 3.0 | 0.00 | 0.02 | 0.02 | 78 | 996.7 |
| 20260510041504 | 77 | 273 | 2.0 | 3.0 | 0.00 | 0.02 | 0.02 | 78 | 996.9 |
| 20260510041004 | 77 | 277 | 2.0 | 2.0 | 0.00 | 0.02 | 0.02 | 78 | 996.9 |
| 20260510040504 | 77 | 240 | 2.0 | 3.0 | 0.00 | 0.02 | 0.02 | 78 | 996.7 |
| 20260510040004 | 77 | 240 | 2.0 | 3.0 | 0.00 | 0.02 | 0.02 | 78 | 996.8 |
| 20260510035504 | 77 | 255 | 2.0 | 3.0 | 0.00 | 0.02 | 0.02 | 78 | 996.6 |
| 20260510034504 | 78 | 225 | 1.0 | 2.0 | 0.00 | 0.02 | 0.02 | 77 | 996.5 |
| 20260510033504 | 78 | 244 | 2.0 | 5.0 | 0.00 | 0.02 | 0.02 | 75 | 996.5 |
| 20260510033004 | 78 | 275 | 3.0 | 7.0 | 0.00 | 0.02 | 0.02 | 75 | 996.4 |
| 20260510032504 | 78 | 274 | 2.0 | 6.0 | 0.00 | 0.02 | 0.02 | 75 | 996.6 |
| 20260510032004 | 79 | 239 | 2.0 | 5.0 | 0.00 | 0.02 | 0.02 | 74 | 996.3 |
| 20260510031504 | 79 | 266 | 3.0 | 5.0 | 0.00 | 0.02 | 0.02 | 74 | 996.4 |
| 20260510031004 | 79 | 228 | 3.0 | 7.0 | 0.00 | 0.02 | 0.02 | 73 | 996.3 |
| 20260510030504 | 79 | 255 | 4.0 | 8.0 | 0.00 | 0.02 | 0.02 | 71 | 996.3 |
| 20260510030004 | 79 | 274 | 3.0 | 6.0 | 0.00 | 0.02 | 0.02 | 70 | 996.2 |
| 20260510025504 | 79 | 259 | 1.0 | 2.0 | 0.00 | 0.02 | 0.02 | 68 | 996.2 |
| 20260510025005 | 79 | 250 | 1.0 | 2.0 | 0.00 | 0.02 | 0.02 | 68 | 996.1 |
| 20260510024504 | 79 | 249 | 0.0 | 0.0 | 0.00 | 0.02 | 0.02 | 67 | 995.8 |
| 20260510024005 | 79 | 262 | 0.0 | 2.0 | 0.00 | 0.02 | 0.02 | 67 | 995.8 |
| 20260510023504 | 80 | 247 | 1.0 | 2.0 | 0.00 | 0.02 | 0.02 | 66 | 995.9 |
| 20260510022505 | 80 | 235 | 1.0 | 2.0 | 0.00 | 0.02 | 0.02 | 66 | 995.7 |
| 20260510022005 | 80 | 239 | 0.0 | 3.0 | 0.00 | 0.02 | 0.02 | 65 | 995.6 |
| 20260510021504 | 80 | 262 | 2.0 | 3.0 | 0.00 | 0.02 | 0.02 | 65 | 995.7 |
| 20260510021004 | 81 | 244 | 1.0 | 1.0 | 0.00 | 0.02 | 0.02 | 64 | 995.5 |
| 20260510020504 | 81 | 239 | 1.0 | 3.0 | 0.00 | 0.02 | 0.02 | 64 | 995.4 |
| 20260510020005 | 81 | 258 | 1.0 | 3.0 | 0.00 | 0.02 | 0.02 | 64 | 995.3 |
| 20260510015504 | 81 | 184 | 0.0 | 1.0 | 0.00 | 0.02 | 0.02 | 63 | 995.4 |
| 20260510015004 | 81 | 269 | 2.0 | 3.0 | 0.00 | 0.02 | 0.02 | 63 | 995.1 |
| 20260510014505 | 82 | 259 | 3.0 | 5.0 | 0.00 | 0.02 | 0.02 | 62 | 995.1 |
| 20260510014004 | 82 | 260 | 2.0 | 3.0 | 0.00 | 0.02 | 0.02 | 62 | 995.1 |
| 20260510013504 | 82 | 257 | 3.0 | 7.0 | 0.00 | 0.02 | 0.02 | 61 | 994.9 |
| 20260510013004 | 82 | 233 | 3.0 | 5.0 | 0.00 | 0.02 | 0.02 | 61 | 994.9 |
| 20260510012504 | 82 | 252 | 2.0 | 3.0 | 0.00 | 0.02 | 0.02 | 61 | 994.9 |
| 20260510012004 | 83 | 257 | 3.0 | 7.0 | 0.00 | 0.02 | 0.02 | 60 | 994.9 |
| 20260510011004 | 83 | 257 | 3.0 | 7.0 | 0.00 | 0.02 | 0.02 | 60 | 995.0 |
| 20260510010504 | 84 | 260 | 2.0 | 5.0 | 0.00 | 0.02 | 0.02 | 60 | 994.8 |
| 20260510010005 | 84 | 219 | 3.0 | 6.0 | 0.00 | 0.02 | 0.02 | 59 | 994.8 |
| 20260510005504 | 84 | 251 | 3.0 | 6.0 | 0.00 | 0.02 | 0.02 | 58 | 994.8 |
| 20260510005004 | 85 | 261 | 3.0 | 6.0 | 0.00 | 0.02 | 0.02 | 57 | 994.7 |
| 20260510004004 | 86 | 258 | 3.0 | 6.0 | 0.00 | 0.02 | 0.02 | 56 | 994.6 |
| 20260510003504 | 86 | 268 | 2.0 | 3.0 | 0.00 | 0.02 | 0.02 | 55 | 994.5 |
| 20260510003004 | 86 | 210 | 2.0 | 5.0 | 0.00 | 0.02 | 0.02 | 55 | 994.5 |
| 20260510002504 | 87 | 186 | 2.0 | 7.0 | 0.00 | 0.02 | 0.02 | 54 | 994.5 |
| 20260510002004 | 87 | 246 | 3.0 | 6.0 | 0.00 | 0.02 | 0.02 | 53 | 994.4 |
| 20260510001504 | 87 | 260 | 2.0 | 6.0 | 0.00 | 0.02 | 0.02 | 53 | 994.4 |
| 20260510001005 | 88 | 258 | 1.0 | 2.0 | 0.00 | 0.02 | 0.02 | 53 | 994.3 |
| 20260510000504 | 88 | 224 | 3.0 | 7.0 | 0.00 | 0.02 | 0.02 | 53 | 994.2 |
| 20260510000004 | 88 | 251 | 2.0 | 5.0 | 0.00 | 0.02 | 0.02 | 52 | 994.1 |
| 20260509235504 | 89 | 257 | 2.0 | 3.0 | 0.00 | 0.02 | 0.02 | 51 | 994.2 |
| 20260509235004 | 89 | 261 | 2.0 | 5.0 | 0.00 | 0.02 | 0.02 | 51 | 994.1 |
| 20260509234505 | 89 | 252 | 1.0 | 5.0 | 0.00 | 0.02 | 0.02 | 50 | 994.1 |
| 20260509234005 | 89 | 265 | 2.0 | 6.0 | 0.00 | 0.02 | 0.02 | 50 | 994.0 |
| 20260509233505 | 90 | 228 | 0.0 | 1.0 | 0.00 | 0.02 | 0.02 | 48 | 994.1 |
| 20260509233006 | 91 | 244 | 1.0 | 2.0 | 0.00 | 0.02 | 0.02 | 47 | 994.0 |
| 20260509232505 | 90 | 228 | 1.0 | 3.0 | 0.00 | 0.02 | 0.02 | 48 | 994.0 |
| 20260509231004 | 90 | 5 | 2.0 | 3.0 | 0.00 | 0.02 | 0.02 | 49 | 994.1 |
| 20260509230004 | 89 | 279 | 2.0 | 6.0 | 0.00 | 0.02 | 0.02 | 49 | 993.9 |
| 20260509225504 | 90 | 289 | 1.0 | 2.0 | 0.00 | 0.02 | 0.02 | 48 | 993.9 |
| 20260509225004 | 91 | 256 | 1.0 | 3.0 | 0.00 | 0.02 | 0.02 | 48 | 993.8 |
| 20260509224504 | 90 | 253 | 1.0 | 2.0 | 0.00 | 0.02 | 0.02 | 47 | 994.0 |
| 20260509224005 | 90 | 286 | 2.0 | 5.0 | 0.00 | 0.02 | 0.02 | 49 | 994.2 |
| 20260509223504 | 90 | 274 | 2.0 | 3.0 | 0.00 | 0.02 | 0.02 | 49 | 994.2 |
| 20260509222504 | 90 | 243 | 0.0 | 3.0 | 0.00 | 0.02 | 0.02 | 48 | 994.1 |
| 20260509221004 | 90 | 276 | 0.0 | 2.0 | 0.00 | 0.02 | 0.02 | 50 | 994.1 |
| 20260509220505 | 90 | 274 | 1.0 | 5.0 | 0.00 | 0.02 | 0.02 | 49 | 994.0 |
| 20260509220004 | 90 | 251 | 2.0 | 5.0 | 0.00 | 0.02 | 0.02 | 50 | 994.1 |
| 20260509215504 | 89 | 4 | 2.0 | 5.0 | 0.00 | 0.02 | 0.02 | 50 | 994.0 |
| 20260509215004 | 91 | 246 | 2.0 | 5.0 | 0.00 | 0.02 | 0.02 | 48 | 994.1 |
| 20260509214504 | 91 | 287 | 2.0 | 3.0 | 0.00 | 0.02 | 0.02 | 49 | 994.1 |
| 20260509214004 | 91 | 219 | 2.0 | 3.0 | 0.00 | 0.02 | 0.02 | 49 | 994.2 |
| 20260509213004 | 91 | 211 | 2.0 | 3.0 | 0.00 | 0.02 | 0.02 | 49 | 994.4 |
| 20260509212504 | 90 | 167 | 2.0 | 3.0 | 0.00 | 0.02 | 0.02 | 50 | 994.4 |
| 20260509212004 | 89 | 142 | 2.0 | 5.0 | 0.00 | 0.02 | 0.02 | 50 | 994.4 |